Weather History for LFSX - November, 2012

Change the Weather History Date:

Tuesday, November 20, 2012

  Actual Average Record
Temperature  
Mean Temperature 40 °F -  
Max Temperature 42 °F 40 °F 60 °F (2011)
Min Temperature 37 °F 31 °F 17 °F (1998)
Degree Days  
Heating Degree Days 26    
Moisture  
Dew Point 38 °F    
Average Humidity 94    
Maximum Humidity 100    
Minimum Humidity 87    
Precipitation  
Precipitation 0.00 in - - ()
Sea Level Pressure  
Sea Level Pressure 30.07 in    
Wind  
Wind Speed 5 mph ()    
Max Wind Speed 10 mph    
Max Gust Speed -    
Visibility 2.5 miles    
Events Fog    
Averages and records for this station are not official NWS values.
T = Trace of Precipitation, MM = Missing Value Source: Averaged Metar Reports

Daily Weather History Graph

Daily Weather History Graph

Search for Another Location

Airport or City:

Trip Planner

Search our weather history database for the weather conditions in past years. The results will help you decide how hot, cold, wet, or windy it might be!

Date:

Astronomy

Nov. 20, 2012 Rise Set
Actual Time 7:47 AM CET 4:52 PM CET
Civil Twilight 7:13 AM CET 5:26 PM CET
Nautical Twilight 6:35 AM CET 6:04 PM CET
Astronomical Twilight 5:58 AM CET 6:41 PM CET
Moon 1:00 PM CET (11/20) No Moon Set
Length of Visible Light 10h 12m
Length of Day
9h 04m
Waxing Crescent, 48% of the Moon is Illuminated
Nov 20
Waxing Crescent
Nov 20
First Quarter
Nov 28
Full
Dec 6
Last Quarter
Dec 13
New

Hourly Weather History & Observations

Time (CET) Temp. Windchill Dew Point Humidity Pressure Visibility Wind Dir Wind Speed Gust Speed Precip Events Conditions
12:00 AM 41.0 °F 36.4 °F 39.2 °F 93% 30.06 in 2.5 mi SE 6.9 mph - N/A   Overcast
12:30 AM 41.0 °F 36.4 °F 39.2 °F 93% 30.06 in - ESE 6.9 mph - N/A   Overcast
1:00 AM 41.0 °F 37.1 °F 39.2 °F 93% 30.06 in - SE 5.8 mph - N/A   Overcast
1:30 AM 39.2 °F 35.0 °F 39.2 °F 100% 30.06 in - ESE 5.8 mph - N/A   Overcast
2:00 AM 39.2 °F 35.0 °F 39.2 °F 100% 30.06 in 1.7 mi SE 5.8 mph - N/A   Overcast
2:30 AM 39.2 °F 37.0 °F 39.2 °F 100% 30.06 in 1.3 mi SE 3.5 mph - N/A   Overcast
3:00 AM 39.2 °F 37.0 °F 39.2 °F 100% 30.06 in 1.0 mi East 3.5 mph - N/A   Overcast
3:30 AM 39.2 °F 37.0 °F 37.4 °F 93% 30.06 in - Variable 3.5 mph - N/A Fog Fog
4:00 AM 39.2 °F 35.9 °F 37.4 °F 93% 30.06 in 0.6 mi ESE 4.6 mph - N/A Fog Fog
4:30 AM 39.2 °F 35.0 °F 39.2 °F 100% 30.06 in 0.4 mi ESE 5.8 mph - N/A Fog Fog
5:00 AM 39.2 °F 35.0 °F 37.4 °F 93% 30.06 in - ESE 5.8 mph - N/A Fog Fog
5:30 AM 39.2 °F 35.0 °F 37.4 °F 93% 30.06 in - East 5.8 mph - N/A Fog Fog
6:00 AM 39.2 °F 35.0 °F 37.4 °F 93% 30.06 in - East 5.8 mph - N/A Fog Fog
6:30 AM 37.4 °F 33.8 °F 37.4 °F 100% 30.06 in - ESE 4.6 mph - N/A Fog Fog
7:00 AM 37.4 °F 32.1 °F 37.4 °F 100% 30.06 in 0.8 mi SE 6.9 mph - N/A   Overcast
7:30 AM 37.4 °F 33.8 °F 37.4 °F 100% 30.06 in 1.0 mi ESE 4.6 mph - N/A   Overcast
8:00 AM 39.2 °F 34.2 °F 37.4 °F 93% 30.09 in 1.0 mi ESE 6.9 mph - N/A   Overcast
8:30 AM 39.2 °F 37.0 °F 37.4 °F 93% 30.09 in 1.2 mi East 3.5 mph - N/A   Overcast
9:00 AM 39.2 °F 37.0 °F 37.4 °F 93% 30.09 in 1.2 mi Variable 3.5 mph - N/A   Overcast
9:30 AM 39.2 °F 35.9 °F 37.4 °F 93% 30.09 in 1.4 mi East 4.6 mph - N/A   Overcast
10:00 AM 39.2 °F 34.2 °F 37.4 °F 93% 30.09 in 1.4 mi East 6.9 mph - N/A   Overcast
10:30 AM 39.2 °F 35.9 °F 37.4 °F 93% 30.09 in 1.1 mi East 4.6 mph - N/A   Overcast
11:00 AM 39.2 °F - 39.2 °F 100% 30.09 in 1.9 mi Variable 2.3 mph - N/A   Overcast
11:09 AM 39.2 °F 35.9 °F 37.4 °F 93% 30.09 in 2.2 mi ESE 4.6 mph - N/A   Overcast
11:30 AM 39.2 °F 35.0 °F 39.2 °F 100% 30.09 in 2.2 mi SE 5.8 mph - N/A   Overcast
12:00 PM 39.2 °F 34.2 °F 39.2 °F 100% 30.09 in 2.2 mi ESE 6.9 mph - N/A   Overcast
12:30 PM 41.0 °F 38.0 °F 39.2 °F 93% 30.06 in 2.5 mi SSE 4.6 mph - N/A   Overcast
1:00 PM 41.0 °F - 39.2 °F 93% 30.06 in 2.5 mi Calm Calm - N/A   Overcast
1:30 PM 41.0 °F - 39.2 °F 93% 30.06 in 3.7 mi Variable 2.3 mph - N/A   Overcast
2:00 PM 41.0 °F 38.0 °F 39.2 °F 93% 30.06 in 3.7 mi SSE 4.6 mph - N/A   Overcast
2:30 PM 41.0 °F 39.0 °F 39.2 °F 93% 30.06 in 4.3 mi Variable 3.5 mph - N/A   Mostly Cloudy
3:00 PM 42.8 °F 40.1 °F 39.2 °F 87% 30.06 in 4.3 mi South 4.6 mph - N/A   Mostly Cloudy
3:30 PM 41.0 °F 39.0 °F 39.2 °F 93% 30.06 in 4.3 mi Variable 3.5 mph - N/A   Mostly Cloudy
4:10 PM 41.0 °F 39.0 °F 37.4 °F 87% 30.06 in 4.3 mi SSE 3.5 mph - N/A   Mostly Cloudy
4:30 PM 41.0 °F - 37.4 °F 87% 30.06 in 3.7 mi Variable 2.3 mph - N/A   Overcast
5:00 PM 41.0 °F 38.0 °F 37.4 °F 87% 30.06 in 2.8 mi SE 4.6 mph - N/A   Overcast
5:30 PM 39.2 °F 35.9 °F 37.4 °F 93% 30.06 in 2.8 mi ESE 4.6 mph - N/A   Overcast
6:00 PM 39.2 °F 34.2 °F 37.4 °F 93% 30.06 in 2.2 mi East 6.9 mph - N/A   Overcast
6:30 PM 39.2 °F 33.6 °F 37.4 °F 93% 30.06 in 2.2 mi ESE 8.1 mph - N/A   Overcast
7:00 PM 39.2 °F 34.2 °F 37.4 °F 93% 30.06 in 2.5 mi ESE 6.9 mph - N/A   Overcast
7:30 PM 39.2 °F 35.0 °F 37.4 °F 93% 30.06 in 2.8 mi SE 5.8 mph - N/A   Overcast
8:00 PM 39.2 °F 35.9 °F 37.4 °F 93% 30.06 in 2.8 mi SE 4.6 mph - N/A   Overcast
8:35 PM 39.2 °F 35.0 °F 35.6 °F 87% 30.06 in 2.8 mi ESE 5.8 mph - N/A   Overcast
9:00 PM 39.2 °F 33.6 °F 35.6 °F 87% 30.06 in 3.1 mi ESE 8.1 mph - N/A   Overcast
9:30 PM 37.4 °F 30.8 °F 35.6 °F 93% 30.06 in 3.1 mi ESE 9.2 mph - N/A   Overcast
10:00 PM 37.4 °F 30.3 °F 35.6 °F 93% 30.06 in 3.1 mi SE 10.4 mph - N/A   Overcast
10:30 PM 37.4 °F 31.4 °F 35.6 °F 93% 30.06 in 4.3 mi SE 8.1 mph - N/A   Overcast
11:00 PM 37.4 °F 31.4 °F 35.6 °F 93% 30.04 in 3.7 mi ESE 8.1 mph - N/A   Overcast
11:30 PM 37.4 °F 30.8 °F 35.6 °F 93% 30.04 in 4.3 mi East 9.2 mph - N/A   Overcast